Weather in Hadiboh

Yemen     12°39′00″N   54°01′22″E
temp.,
°C
wind,
m/s
gust,
m/s
humid.,
%
clouds,
%
prec.,
mm/h
press.,
hPa
HPBL,
m
14 august, sun
sun1400:00+26ssw91472100 0.0 1003284
03:00+26ssw132072100 0.0 1002479
06:00+26ssw12177494 0.0 1004480
09:00+27ssw1420669 0.0 1005507
12:00+28ssw152061100 0.0 1003481
15:00+28ssw11146149 0.0 1002224
18:00+27ssw9126888 0.0 1003185
21:00+26ssw81169100 0.0 1005156
15 august, mon
mon1500:00+27ssw101468100 0.0 1004284
03:00+26ssw111770100 0.0 1003390
06:00+26ssw121872100 0.0 1005434
09:00+27ssw142068100 0.0 1006460
12:00+28ssw14186397 0.0 1005360
15:00+28ssw11136490 0.0 1003187
18:00+27ssw8117128 0.0 1004127
21:00+26ssw911735 0.0 1006149
16 august, tue
tue1600:00+26ssw710745 0.0 1005157
03:00+26ssw9137324 0.0 1004263
06:00+26ssw912765 0.0 1005268
09:00+27ssw1115705 0.0 1006301
12:00+28ssw13176413 0.0 1004293
15:00+28ssw111464100 0.0 1003192
18:00+27ssw81070100 0.0 1004116
21:00+26ssw71073100 0.0 1006122
17 august, wed
wed1700:00+26ssw7973100 0.0 1005140
03:00+26ssw81272100 0.0 1004244
06:00+26ssw101576100 0.0 1006387
09:00+27ssw101570100 0.0 1006327
12:00+27ssw131665100 0.0 1005323
15:00+27ssw91167100 0.0 1004173
18:00+26ssw7975100 0.0 1005122
21:00+26ssw71075100 0.0 1007137
18 august, thu
thu1800:00+26ssw7973100 0.0 1005156
03:00+26ssw71174100 0.0 1004219
06:00+26ssw111773100 0.0 1006457
09:00+27ssw131768100 0.0 1007387
12:00+28ssw121664100 0.0 1005297
15:00+27ssw101266100 0.0 1005181
18:00+27ssw6772100 0.0 100673
21:00+26ssw6876100 0.0 1007104